www.pogodaiklimat.ru

Погода и климат >> Архив погоды >> Австралия >> Квинсленд >> Чарвилл


ПОГОДА в Чарвилле

  • Прогноз погоды в Чарвилле
  • Монитор погоды в Чарвилле

АРХИВ ПОГОДЫ в Чарвилле

Время (UTC), дата Ветер
(напр.,м/с)
 
Видим.   Явления Облачность Т
(С)
Тd
(С)
f
(%)
Тe
(С)
Тes
(С)
Комфортность P
(гПа)
Po
(гПа)
Тmin
(С)
Tmax
(С)
R
(мм)
R24
(мм)
S
(см)
17 18.05 В 2 н/о н/о +15.0 +8.0 63 +15 +15 1023.9 988.2
18 18.05 В 3 н/о н/о +14.7 +8.0 64 +14 +14 1024.2 988.5
20 18.05 СВ 4 н/о н/о +16.4 +9.1 62 +16 +16 1024.9 989.1
21 18.05 В 3 н/о н/о +16.0 +9.4 65 +16 +16 1025.7 989.9
23 18.05 В 5 н/о н/о +19.7 +10.1 54 +21 +21 комфорт 1026.7 990.9
00 19.05 В 5 н/о н/о +21.5 +9.7 47 +23 +23 комфорт 1026.7 990.9
02 19.05 СВ 5 н/о н/о +24.0 +5.8 31 +24 +24 комфорт 1024.8 989.0 +14.6
03 19.05 В 5 н/о н/о +24.9 +4.1 26 +24 +24 комфорт 1024.1 988.4
05 19.05 В 5 н/о н/о +24.5 +3.8 26 +24 +24 комфорт 1022.9 987.2
06 19.05 В 6 н/о н/о +24.2 +3.5 26 +24 +24 комфорт 1022.7 987.0
08 19.05 ЮВ 3 н/о 9/0 2000 м
[]
+21.8 +4.4 32 +22 +22 комфорт 1023.4 987.7
09 19.05 ЮВ 3 н/о н/о +20.8 +4.8 35 +22 +22 комфорт 1023.6 987.9
11 19.05 ЮВ 3 н/о 10/0
[]
+19.7 +5.4 39 +21 +21 комфорт 1024.5 988.7
12 19.05 В 4 н/о н/о +19.6 +6.0 41 +20 +20 1024.1 988.4
14 19.05 В 1 н/о 10/0
[]
+17.7 +6.9 49 +19 +19 1023.8 988.1 +25.5
15 19.05 Ю 2 н/о н/о +17.1 +6.9 51 +18 +18 1023.1 987.4
17 19.05 ЮВ 3 н/о 10/0 2000 м
[]
+17.3 +7.9 54 +17 +17 1023.2 987.5
18 19.05 В 3 н/о н/о +18.0 +8.0 52 +18 +18 1023.2 987.5
20 19.05 СВ 4 н/о 10/0 2000 м
[]
+18.8 +10.9 60 +19 +19 1024.0 988.3
21 19.05 СВ 4 н/о н/о +18.4 +11.5 64 +19 +19 1024.5 988.7
23 19.05 СВ 5 н/о 9/0 2000 м
[]
+20.3 +11.2 56 +22 +23 комфорт 1025.4 989.6
00 20.05 СВ 4 н/о н/о +21.5 +11.5 53 +24 +24 комфорт 1025.7 989.9
02 20.05 СВ 3 н/о 5/0 2000 м
[]
+23.6 +11.3 46 +25 +31 комфорт 1024.0 988.3 +16.3
03 20.05 СВ 3 н/о н/о +24.3 +10.2 41 +25 +25 комфорт 1022.9 987.2
05 20.05 В 2 н/о 8/0
[]
+24.3 +9.8 40 +25 +28 комфорт 1022.0 986.3
06 20.05 штиль 0 н/о н/о +24.4 +8.8 37 +25 +25 комфорт 1021.8 986.1
08 20.05 штиль 0 н/о 9/0
[]
+22.0 +9.9 46 +24 +24 комфорт 1022.3 986.6
09 20.05 штиль 0 н/о н/о +19.4 +10.4 56 +20 +20 1022.7 987.0
11 20.05 ЮВ 2 н/о 4/0 2000 м
[]
+18.5 +10.1 58 +20 +20 1023.8 988.1
12 20.05 ЮВ 2 н/о н/о +18.2 +10.3 60 +19 +19 1024.0 988.3
14 20.05 штиль 0 н/о н/о +15.0 +9.4 69 +15 +15 1023.5 987.8 +26.3
15 20.05 штиль 0 н/о н/о +13.7 +9.2 74 +13 +13 1023.1 987.4
17 20.05 штиль 0 н/о н/о +12.0 +8.5 79 +12 +12 1023.1 987.4
18 20.05 ЮВ 3 н/о н/о +11.9 +8.4 79 +11 +11 1023.0 987.3
20 20.05 штиль 0 н/о н/о +10.8 +7.9 82 +10 +10 1023.6 987.9
21 20.05 штиль 0 н/о н/о +10.9 +8.1 83 +10 +10 1024.3 988.6
23 20.05 СВ 2 н/о н/о +18.9 +10.2 57 +20 +20 1025.4 989.6
00 21.05 С 3 н/о н/о +21.3 +11.1 52 +23 +23 комфорт 1025.7 989.9
02 21.05 С 1 н/о {туман} 1/1 1000 м
[]
+23.7 +10.4 43 +25 +36 комфорт 1024.2 988.5 +10.7
03 21.05 ЮВ 3 н/о н/о +24.0 +10.3 42 +25 +25 комфорт 1023.2 987.5
05 21.05 В 2 н/о {туман} 4/0 2000 м
[]
+26.4 +7.4 30 +26 +30 жарко 1022.0 986.3
06 21.05 В 4 н/о н/о +24.3 +8.7 37 +25 +25 комфорт 1022.2 986.5
08 21.05 ЮВ 2 н/о н/о +21.0 +9.9 49 +23 +23 комфорт 1023.0 987.3
09 21.05 штиль 0 н/о н/о +18.5 +9.8 57 +19 +19 1023.4 987.7
11 21.05 ЮВ 3 н/о н/о +17.4 +10.1 62 +18 +18 1024.5 988.7
12 21.05 ЮВ 3 н/о н/о +17.3 +10.0 62 +17 +17 1024.9 989.1
14 21.05 В 2 н/о н/о +15.6 +9.5 67 +16 +16 1024.8 989.0 +26.8
15 21.05 ЮВ 3 н/о н/о +15.4 +10.0 70 +15 +15 1024.6 988.8
17 21.05 ЮВ 3 н/о н/о +14.0 +9.4 74 +13 +13 1024.2 988.5
18 21.05 ЮВ 3 н/о н/о +13.2 +9.3 77 +12 +12 1024.2 988.5
20 21.05 штиль 0 н/о н/о +11.5 +8.7 83 +11 +11 1025.2 989.4
21 21.05 штиль 0 н/о н/о +11.1 +8.7 85 +10 +10 1025.7 989.9
23 21.05 СВ 2 н/о н/о +20.6 +11.2 55 +23 +23 комфорт 1027.1 991.3
00 22.05 С 3 н/о н/о +21.9 +10.7 49 +24 +24 комфорт 1027.5 991.6
02 22.05 СЗ 1 н/о н/о +24.8 +10.3 40 +26 +26 жарко 1025.9 990.1 +11.2
03 22.05 В 3 н/о н/о +24.3 +10.2 41 +25 +25 комфорт 1024.8 989.0
05 22.05 ЮВ 3 н/о н/о +25.0 +9.3 37 +26 +26 жарко 1023.4 987.7
06 22.05 В 4 н/о н/о +25.2 +9.1 36 +26 +26 жарко 1023.6 987.9
08 22.05 штиль 0 н/о 10/0 2000 м
[]
+21.9 +9.8 46 +23 +23 комфорт 1023.9 988.2
09 22.05 ЮВ 2 н/о н/о +20.0 +9.3 50 +22 +22 комфорт 1024.3 988.6
11 22.05 ЮВ 2 н/о 1/0 2000 м
[]
+17.4 +9.6 60 +18 +18 1025.3 989.5
12 22.05 ЮВ 2 н/о н/о +17.8 +9.2 57 +18 +18 1025.2 989.4
14 22.05 ЮВ 2 н/о 1/0 2000 м
[]
+14.7 +8.9 68 +15 +15 1025.0 989.2 +26.1
15 22.05 штиль 0 н/о н/о +13.7 +8.3 70 +13 +13 1024.7 988.9
17 22.05 штиль 0 н/о 1/0
[]
+13.6 +8.9 73 +13 +13 1024.1 988.4
18 22.05 штиль 0 н/о н/о +13.9 +9.3 74 +14 +14 1023.9 988.2
20 22.05 штиль 0 н/о 9/0
[]
+14.0 +9.6 75 +14 +14 1024.3 988.6
21 22.05 штиль 0 н/о н/о +13.9 +9.9 77 +14 +14 1025.0 989.2
23 22.05 ЮВ 2 н/о 9/0
[]
+19.1 +10.4 57 +20 +22 1026.1 990.3
00 23.05 ЮВ 3 н/о н/о +23.1 +9.8 43 +25 +25 комфорт 1026.3 990.5
02 23.05 В 3 н/о н/о +24.8 +7.4 33 +25 +25 комфорт 1024.8 989.0 +13.6
03 23.05 В 3 н/о н/о +25.3 +6.0 29 +25 +25 комфорт 1023.6 987.9
05 23.05 ЮВ 3 н/о 4/0
[]
+25.9 +4.9 26 +25 +28 комфорт 1022.2 986.5
06 23.05 ЮВ 4 н/о н/о +24.6 +4.4 27 +24 +24 комфорт 1022.3 986.6
08 23.05 ЮВ 3 н/о 3/0
[]
+22.0 +5.0 33 +22 +22 комфорт 1022.7 987.0
09 23.05 ЮВ 2 н/о н/о +18.7 +5.9 43 +20 +20 1023.0 987.3
11 23.05 ЮВ 3 н/о н/о +18.0 +6.5 47 +18 +18 1023.7 988.0
12 23.05 ЮВ 2 н/о н/о +16.9 +6.7 51 +17 +17 1023.9 988.2
14 23.05 ЮВ 3 н/о н/о +14.2 +7.0 62 +14 +14 1023.3 987.6 +26.6
15 23.05 В 2 н/о н/о +13.4 +7.4 67 +13 +13 1023.0 987.3
17 23.05 штиль 0 н/о н/о +11.6 +7.1 74 +11 +11 1022.6 986.9
18 23.05 штиль 0 н/о н/о +10.8 +6.9 77 +10 +10 1022.2 986.5
20 23.05 штиль 0 н/о н/о +9.7 +7.0 83 +9 +9 1022.5 986.8
21 23.05 штиль 0 н/о н/о +9.3 +6.7 84 +9 +9 1023.1 987.4
23 23.05 СВ 1 н/о н/о +19.0 +8.1 49 +21 +21 комфорт 1024.1 988.4
00 24.05 С 2 н/о н/о +21.1 +8.0 43 +22 +22 комфорт 1023.8 988.1
02 24.05 Ю 3 н/о н/о +23.9 +2.1 24 +23 +23 комфорт 1022.3 986.6 +9.4
03 24.05 ЮВ 4 н/о н/о +24.4 +3.1 25 +24 +24 комфорт 1021.1 985.5
05 24.05 В 4 н/о н/о +24.6 +3.3 25 +24 +24 комфорт 1019.8 984.2
06 24.05 ЮВ 3 н/о н/о +24.9 +4.1 26 +24 +24 комфорт 1019.8 984.2
08 24.05 ЮВ 3 н/о 9/0 2000 м
[]
+22.4 +4.5 31 +23 +23 комфорт 1020.6 985.0
09 24.05 ЮВ 1 н/о н/о +20.4 +4.4 35 +22 +22 комфорт 1021.1 985.5
11 24.05 В 2 н/о н/о +16.7 +5.0 46 +17 +17 1021.3 985.7
12 24.05 В 2 н/о н/о +16.3 +5.9 50 +16 +16 1021.4 985.8
14 24.05 штиль 0 н/о 5/0 2000 м
[]
+14.1 +6.2 59 +14 +14 1020.9 985.3 +25.2
15 24.05 штиль 0 н/о н/о +13.0 +6.6 65 +13 +13 1021.0 985.4
17 24.05 штиль 0 н/о 9/0 2000 м
[]
+13.0 +7.5 69 +13 +13 1020.0 984.4
18 24.05 ЮВ 2 н/о н/о +13.3 +8.0 70 +13 +13 1020.3 984.7
20 24.05 штиль 0 н/о 10/0
[]
+13.9 +8.3 69 +14 +14 1020.1 984.5
21 24.05 ЮВ 2 н/о н/о +14.6 +8.3 66 +14 +14 1020.5 984.9
23 24.05 С 2 н/о 8/0
[]
+18.5 +8.5 52 +20 +22 1021.1 985.5
00 25.05 СВ 4 н/о н/о +20.1 +7.8 45 +21 +21 комфорт 1021.3 985.7
02 25.05 С 5 н/о 5/0
[]
+23.1 +8.0 38 +24 +28 комфорт 1019.9 984.3 +12.7
03 25.05 С 3 н/о н/о +24.6 +8.1 35 +25 +25 комфорт 1018.5 983.0
05 25.05 З 2 н/о 3/0 2000 м
[]
+24.1 +5.9 31 +24 +28 комфорт 1017.4 981.9
06 25.05 С 3 н/о н/о +25.1 +5.8 29 +25 +25 комфорт 1017.2 981.7
08 25.05 штиль 0 н/о н/о +20.4 +6.4 40 +21 +21 комфорт 1017.7 982.2
09 25.05 штиль 0 н/о н/о +17.6 +7.4 51 +18 +18 1018.3 982.8
11 25.05 штиль 0 н/о 3/0
[]
+15.5 +8.0 61 +15 +15 1019.3 983.7
12 25.05 штиль 0 н/о н/о +14.8 +8.3 65 +15 +15 1019.2 983.6
14 25.05 штиль 0 н/о 1/0
[]
+13.3 +8.0 70 +13 +13 1018.6 983.1 +25.8
15 25.05 штиль 0 н/о н/о +13.2 +8.1 71 +13 +13 1018.3 982.8

 

Местоположение метеостанции Чарвилл (Квинсленд, Австралия): широта -26.41 долгота 146.26 высота над уровнем моря 303 м.

В архиве по умолчанию представлена погода в Чарвилле за последнюю неделю. Архивные данные за месяц целиком и за предыдущие месяцы, начиная с января 2011 года, Вы можете получить, выбрав интересующий диапазон дат из раскрывающегося списка и нажав кнопку "Ввод!".


*Определитесь, кто Вы:
робот инопланетянин человек

Внимание! Время в таблицах - всемирное. Для получения местного времени необходимо прибавить поправку, которая равна 10 ч.

Смотрите также архив погоды в соседних городах и на ближайших метеорологических станциях:

Погода в Блэколле (Квинсленд, Австралия) (237 км)
Погода в Роме (Квинсленд, Австралия) (251 км)
Погода в Сейнт Джордж аэропорту (Квинсленд, Австралия) (295 км)
Погода в Таргоминде (Квинсленд, Австралия) (299 км)
Погода в Лочингтоне (Квинсленд, Австралия) (304 км)
Погода в Роллстоне (Квинсленд, Австралия) (321 км)
Погода в Эмералде (Квинсленд, Австралия) (371 км)
Погода в Лонгриче (Квинсленд, Австралия) (387 км)
Погода в Майлсе (Квинсленд, Австралия) (391 км)
Погода в Бурке (Новый Южный Уэльс, Австралия) (404 км)

Пояснения к столбцам:

Ветер - указаны скорость ветра в м/с - средняя за 10 мин, порывы в срок и между сроками (в фигурных скобках) и направление, откуда дует ветер: С - северный, СВ - северо-восточный, В - восточный, ЮВ - юго-восточный, Ю - южный, ЮЗ - юго-западный, З - западный, СЗ - северо-западный.
Видимость - горизонтальная дальность видимости в метрах или километрах. При видимости от 1 до 10 км при отсутствии осадков обычно наблюдается дымка, при ухудшении видимости до 1 км и менее - туман. В сухую погоду видимость может ухудшаться дымом, пылью или мглою.
Явления - указаны атмосферные явления, наблюдавшиеся в срок или в последний час перед сроком; фигурными скобками обозначены явления, наблюдавшиеся между сроками (за 1-3 часа до срока); квадратными скобками обозначены град или гололедные отложения с указанием их диаметра в мм.
Облачность - указаны через наклонную черту общая и нижняя облачность в баллах и высота нижней границы облаков в метрах; квадратными скобками обозначены формы облаков: Ci - перистые, Cs - перисто-слоистые, Cc - перисто-кучевые, Ac - высококучевые, As - высокослоистые, Sc - слоисто-кучевые, Ns - слоисто-дождевые, Cu - кучевые, Cb - кучево-дождевые. Подробнее классификацию облаков см. в Атласе облаков (PDF).
T - Температура воздуха - температура, измеренная на высоте 2 м над землей.
Td - Температура точки росы - температура, при понижении до которой содержащийся в воздухе водяной пар достигнет насыщения.
f - Относительная влажность воздуха - влажноcть воздуха, измеренная на высоте 2 м над землей.
Te - Эффективная температура - температура, которую ощущает одетый по сезону человек в тени. Характеристика душности погоды. При расчете учитывается влияние влажности воздуха и скорости ветра на теплоощущения человека.
Tes - Эффективная температура на солнце - температура, которую ощущает человек, с поправкой на солнечный нагрев. Характеристика знойности погоды. Зависит от высоты солнца над горизонтом, облачности и скорости ветра. Ночью, в пасмурную погоду, а также при ветре 12 м/с и более поправка равна нулю.
P - Атмосферное давление - приведенное к уровню моря атмосферное давление.
Po - Атмосферное давление - измеренное на уровне метеостанции атмосферное давление.
Tmin - Минимальная температура - минимум температуры воздуха на высоте 2 м над землей.
Tmax - Максимальная температура - максимум температуры воздуха на высоте 2 м над землей.
R - Количество осадков - Количество выпавших осадков за период времени, мм. При наведении курсора мыши на число - период времени, за который выпало указанное количество осадков.
R24 - Количество осадков - Количество выпавших осадков за 24 часа, мм.
S - Снежный покров - Высота снежного покрова, см. При наведении курсора мыши на число - состояние снежного покрова и степень покрытия местности в баллах.